DMSP 5D-2 F11 DEB, 28304

Orbit data source: Space-Track

DMSP 5D-2 F11 DEB, 28304 is space debris in SSO originally from a launch on Thu, 28 Nov 1991 UTC launched from the Air Force Western Test Range (AFWTR). Debris objects in space refer to the collection of defunct objects orbiting the Earth. Examples of debris include non-operational satellites, rocket bodies, and fragments generated from explosions, collisions, or faulty payload assembly.

Loading next visibility...
Identifier
28304, 1991-082R
Orbit
SSO
Country
Flag of USUS
Related business
Manufacturer
Unknown
Mission
Spacecraft
Bus & Motor
Unknown
Mass
Unknown
Launch date (UTC)
1991-11-28 (34 years ago)
Launch vehicle
Unknown
Launch site
Air Force Western Test Range (AFWTR)
Object type
Payload
Rocket body
Debris
Shape & HBR
Unknown shape, 0.2 m
Radar Cross Section
Small (<0.1 m²)

Expand to show TLE details & history
Last TLE update: 7 hours ago

TLE from 7 hours ago
0 DMSP 5D-2 F11 DEB
1 28304U 91082R   25349.88354759  .00000107  00000-0  74673-4 0  9998
2 28304  98.7122  16.6122 0013647  91.0083  82.7799 14.16986427119212
Epoch: 2025-12-15T21:12Z
TLE epoch observation values (Epoch: 2025-12-15T21:12:18.511Z)
Latitude
5.90688°
Longitude
154.66297°
Altitude
836.676 km
Speed
7.436 km/s
True Right ascension
13h 10m 03s
True Declination
5° 52' 20"
Sunlit
Object was in daylight at epoch
Visualization orbit readout
Latitude
Unknown
Longitude
Unknown
Altitude
Unknown
Speed
Unknown
Apparent Right ascension
Unknown
Apparent Declination
Unknown
Sunlit
N/A
Visualization observer readout
Local Sidereal Time
03:07:59
Azimuth
Unknown
Elevation
Unknown
Doppler factor
Unknown
Orbital elements
Apogee altitude
842.566 km
Perigee altitude
822.885 km
Semi-major axis
7,210.862 km
Eccentricity
0.00136
Inclination
98.7122°
RAAN
16.6122°
Arg. of periapsis
91.0083°
True anomaly
82.93508°
Mean anomaly
82.7799°
Eccentric anomaly
82.85748°
Mean motion
3.54456 °/min
Orbital period
101.56 mins
BSTAR
0.000074673
Loading maneuver chart data...
Computing Atmospheric mass density...

Documentation

Showing up to 5 results
|